LEMUR-2-CHANTAL (47529 NORAD) Tracking and Keplerian Element Data

This shows tracking and keplerian element data for the satellite.

Feedback or suggestion? Click here.




ElementValue
Catalog47529
NameLEMUR-2-CHANTAL
Epoch Orbit1294
Epoch Day101.90896731
Epoch Year2021
RAAN164.1862
Inclination97.4953
Eccentricity0.0007202
Argument of Perigee349.7785
Mean Anonmoly10.3298
Mean Motion15.11887868
Decay Rate9.47E-06
L11 47529U 21006DV 21101.90896731 .00000947 00000-0 59030-4 0 9995
L22 47529 97.4953 164.1862 0007202 349.7785 10.3298 15.11887868 12940

Live tracking and technical data element details for LEMUR-2-CHANTAL (NORAD 47529). LEMUR-2-CHANTAL can be tracked NOW for your location showing map with azimuth and elevation plus other details from your city location.

Track the satellite on the map from your city or location and see movement details for azimuth, elevation, latitude, longitude, range, height, and movement on the map or in text.







IsCatalogInMostPopularTable: catalog: 47529, numindb: 16
Update: records affected: 1



GetName: 47529 LEMUR-2-CHANTAL

Hit Count: updated at: Tue, 13 Apr 2021 04:53:40 GMT